Content
SEND FEEDBACK

Daily
Averages
Monthly
Summary
France

CANNES, FRANCE


Home > Europe > France
Elevation: 30 feet     Latitude: 43 33N     Longitude: 006 57E

WEATHER
 
SELECT A DAY
Number of Records: 104,156;   Date Range: 7/1/96 - 7/9/14
 
SHARE

PRINT THIS DATA

[ ← Previous Day ]
WEATHER ALMANAC - MAY 19, 2013
[ Next Day → ]
[ °C ]   °F
Weather ElementAverageHighLow
Temperature57.8 °F69.8 °F (2:30 pm)48.2 °F (4:30 am)
Dewpoint48.6 °F51.8 °F (12:30 am)42.8 °F (3:00 pm)
Humidity74.4 %100 % (3:00 am)38 % (3:00 pm)
Barometer29.88 in29.98 in (10:00 pm)29.80 in (4:00 am)
Wind Speed5.3 mph13.8 mph (4:00 pm)
Weather ElementAverage
Visibility6.1 mi
Wind DirectionESE (99.1 °)

Weather ElementTotal
Precipitation---
Heating Degree Days6 (Base 65)
Growing Degree Days9 (Base 50)
Averaged from 47 records on May 19, 2013
WEATHER CONDITIONS BREAKOUT
WIND DIRECTION BREAKOUT
WEATHER BY HOUR - MAY 19, 2013
[ °C ]   °F
Local TimeTemperatureDewpointHumidityBarometerVisibilityWind DirectionWind SpeedGust SpeedPrecipitationEventsConditions
12:30 AM53.6 °F51.8 °F94 %29.83 in6.2 miNNE (30°)4.6 mphRainLight Rain
1:00 AM53.6 °F51.8 °F94 %29.83 in6.2 miVariable2.3 mphRainLight Rain
1:30 AM53.6 °F51.8 °F94 %29.83 in6.2 miVariable2.3 mphMostly Cloudy
2:00 AM51.8 °F50.0 °F94 %29.83 in6.2 miVariable1.2 mph
2:30 AM51.8 °F50.0 °F94 %29.83 in6.2 miVariable1.2 mph
3:00 AM50.0 °F50.0 °F100 %29.83 in6.2 miCalm
3:30 AM50.0 °F48.2 °F94 %29.83 in6.2 miVariable1.2 mph
4:00 AM50.0 °F48.2 °F94 %29.80 in6.2 miVariable2.3 mph
4:30 AM48.2 °F48.2 °F100 %29.80 in6.2 miVariable2.3 mphScattered Clouds
5:00 AM50.0 °F48.2 °F94 %29.80 in5.0 miVariable1.2 mphRain-ThunderstormRain
5:30 AM50.0 °F48.2 °F94 %29.83 in5.0 miVariable3.5 mphRainRain
6:00 AM50.0 °F48.2 °F94 %29.83 in6.2 miNorth (10°)3.5 mphRain-ThunderstormLight Rain
6:30 AM50.0 °F48.2 °F94 %29.83 in6.2 miCalmOvercast
7:00 AM50.0 °F48.2 °F94 %29.83 in6.2 miVariable2.3 mphMostly Cloudy
7:30 AM51.8 °F48.2 °F88 %29.86 in6.2 miNorth (10°)3.5 mphOvercast
8:00 AM51.8 °F50.0 °F94 %29.86 in6.2 miNorth (10°)3.5 mphOvercast
8:30 AM55.4 °F50.0 °F82 %29.86 in6.2 miNNE (20°)4.6 mphScattered Clouds
9:00 AM59.0 °F50.0 °F72 %29.86 in6.2 miVariable2.3 mphPartly Cloudy
9:30 AM60.8 °F48.2 °F63 %29.89 in6.2 miVariable1.2 mph
10:00 AM60.8 °F48.2 °F63 %29.89 in6.2 miSouth (170°)4.6 mph
10:30 AM62.6 °F50.0 °F63 %29.89 in6.2 miSSE (160°)5.8 mphMostly Cloudy
11:00 AM62.6 °F51.8 °F68 %29.89 in6.2 miSSE (150°)6.9 mphMostly Cloudy
11:30 AM62.6 °F50.0 °F63 %29.89 in6.2 miWest (270°)8.1 mphMostly Cloudy
12:00 PM66.2 °F48.2 °F52 %29.89 in6.2 miSW (230°)10.4 mphPartly Cloudy
12:30 PM66.2 °F50.0 °F56 %29.89 in6.2 miSW (230°)10.4 mphPartly Cloudy
1:00 PM68.0 °F46.4 °F46 %29.89 in6.2 miWest (260°)10.4 mphPartly Cloudy
1:30 PM68.0 °F46.4 °F46 %29.89 in6.2 miWSW (240°)9.2 mphMostly Cloudy
2:00 PM68.0 °F46.4 °F46 %29.89 in6.2 miSW (230°)11.5 mphMostly Cloudy
2:30 PM69.8 °F46.4 °F43 %29.89 in6.2 miSW (230°)10.4 mphMostly Cloudy
3:00 PM69.8 °F42.8 °F38 %29.89 in6.2 miWSW (250°)9.2 mphMostly Cloudy
3:30 PM69.8 °F46.4 °F43 %29.89 in6.2 miSW (230°)12.7 mphMostly Cloudy
4:00 PM64.4 °F48.2 °F56 %29.89 in6.2 miSSW (210°)13.8 mphPartly Cloudy
4:30 PM62.6 °F50.0 °F63 %29.89 in6.2 miSW (220°)10.4 mph
5:00 PM62.6 °F48.2 °F59 %29.89 in6.2 miSW (220°)13.8 mph
5:30 PM62.6 °F46.4 °F55 %29.89 in6.2 miSW (220°)11.5 mph
6:00 PM62.6 °F48.2 °F59 %29.92 in6.2 miSW (230°)9.2 mphThunderstormMostly Cloudy
6:30 PM62.6 °F48.2 °F59 %29.92 in6.2 miWest (260°)4.6 mph
7:00 PM62.6 °F44.6 °F52 %29.92 in6.2 miWNW (300°)8.1 mphOvercast
7:30 PM59.0 °F48.2 °F67 %29.92 in6.2 miWest (270°)6.9 mphRainLight Rain
8:00 PM57.2 °F50.0 °F77 %29.92 in6.2 miVariable2.3 mphOvercast
8:30 PM57.2 °F48.2 °F72 %29.95 in6.2 miVariable3.5 mphOvercast
9:00 PM55.4 °F50.0 °F82 %29.95 in6.2 miVariable2.3 mphOvercast
9:30 PM53.6 °F50.0 °F88 %29.95 in6.2 miVariable3.5 mph
10:00 PM53.6 °F50.0 °F88 %29.98 in6.2 miVariable3.5 mph
10:30 PM51.8 °F48.2 °F88 %29.98 in6.2 miVariable2.3 mph
11:00 PM51.8 °F48.2 °F88 %29.98 in6.2 miCalm
11:30 PM51.8 °F48.2 °F88 %29.98 in6.2 miVariable2.3 mph
Hourly data recorded from LFMD, located miles away from Cannes, France







STORIES FROM OUR PARTNERS